Location: Unspecified
(0.0000°N, 0.0000°E)
Time: 20:16:42
(UTC+00:00)

COSMOS 2401 - Pass Details

Date: 07 March 2021
Orbit: 1467 x 1500 km, 82.5° (Epoch: 12 April)

Event Time Altitude Azimuth Distance (km) Brightness Sun altitude
Rises 05:27:40 0° 40° (NE) 4,620 10.5 -10.8°
Reaches altitude 10° 05:34:09 10° 75° (ENE) 3,639 10.8 -9.2°
Maximum altitude 05:35:53 11° 87° (E) 3,586 11.0 -8.8°
Drops below altitude 10° 05:37:36 10° 98° (E) 3,638 11.2 -8.3°
Sets 05:43:58 0° 133° (SE) 4,613 11.0 -6.7°
